Location: Amsterdam
(30.7274°N, 84.4357°W)
Time: 06:33:24
(UTC+00:00)

Courier 1B Rocket - Pass Details

Date: 16 February 2026
Orbit: 920 x 1201 km, 28.2° (Epoch: 9 March)

Event Time Altitude Azimuth Distance (km) Brightness Sun altitude
Rises 07:47:38 0° 268° (W) 3,847 - -57.5°
Reaches altitude 10° 07:51:03 10° 253° (WSW) 2,941 - -56.9°
Maximum altitude 07:56:13 21° 208° (SSW) 2,296 - -55.9°
Drops below altitude 10° 08:01:35 10° 162° (SSE) 3,066 - -54.8°
Sets 08:05:16 0° 147° (SSE) 4,056 - -54.1°
